Retour au catalogue

COSMOS 2024

ETALON 2

ActifScienceMEO
NORAD 20026·PAYLOAD·🇷🇺 Russia

Lancé May 31, 1989 depuis Baikonur Cosmodrome

Loading…

Prochains Passages (prochaines 24 heures)

TLE

FraisSource: CelesTrak SupGP

Époque: Sep 14, 2026, 00:00 UTC

1 20026C 89039C   26257.00000000  .00000000  00000+0  00000+0 0  2576
2 20026  64.8758 307.4714 0020822 212.3397  36.9654  2.13204840    15

Suivez COSMOS 2024 en temps réel avec AllMySat

Download on the App Store